TimeCDT,TemperatureF,Dew PointF,Humidity,Sea Level PressureIn,VisibilityMPH,Wind Direction,Wind SpeedMPH,Gust SpeedMPH,PrecipitationIn,Events,Conditions,WindDirDegrees,DateUTC
12:15 AM,23.0,19.4,86,29.85,10.0,NNW,13.8,-,N/A,,Overcast,330,2013-03-12 05:15:00
12:55 AM,21.2,17.6,86,29.87,10.0,NNW,12.7,-,N/A,,Mostly Cloudy,330,2013-03-12 05:55:00
1:15 AM,21.2,17.6,86,29.87,7.0,NNW,11.5,-,N/A,,Overcast,330,2013-03-12 06:15:00
1:35 AM,21.2,17.6,86,29.88,7.0,NNW,12.7,-,N/A,,Overcast,330,2013-03-12 06:35:00
1:55 AM,21.2,17.6,86,29.88,10.0,North,11.5,-,N/A,,Overcast,350,2013-03-12 06:55:00
2:15 AM,19.4,17.6,93,29.88,10.0,North,9.2,-,N/A,,Mostly Cloudy,350,2013-03-12 07:15:00
2:55 AM,17.6,14.0,86,29.90,7.0,North,6.9,-,N/A,,Overcast,350,2013-03-12 07:55:00
3:15 AM,17.6,14.0,86,29.91,10.0,NNW,6.9,-,N/A,,Overcast,340,2013-03-12 08:15:00
3:55 AM,15.8,14.0,93,29.91,7.0,NNW,8.1,-,N/A,,Overcast,340,2013-03-12 08:55:00
4:15 AM,17.6,14.0,86,29.92,5.0,NNW,9.2,-,N/A,,Overcast,330,2013-03-12 09:15:00
4:35 AM,17.6,14.0,86,29.93,10.0,NNW,9.2,-,N/A,,Overcast,340,2013-03-12 09:35:00
4:55 AM,17.6,14.0,86,29.94,7.0,NNW,11.5,-,N/A,,Overcast,340,2013-03-12 09:55:00
5:15 AM,17.6,14.0,86,29.94,5.0,NNW,10.4,-,N/A,,Overcast,340,2013-03-12 10:15:00
5:55 AM,15.8,12.2,86,29.96,7.0,NNW,10.4,16.1,N/A,,Overcast,340,2013-03-12 10:55:00
6:15 AM,15.8,12.2,86,29.97,7.0,NNW,10.4,-,N/A,,Overcast,340,2013-03-12 11:15:00
6:35 AM,15.8,12.2,86,29.98,7.0,NNW,10.4,-,N/A,,Overcast,330,2013-03-12 11:35:00
6:55 AM,15.8,12.2,86,29.99,10.0,NNW,11.5,-,N/A,,Overcast,330,2013-03-12 11:55:00
7:15 AM,15.8,12.2,86,30.00,7.0,NNW,10.4,-,N/A,,Overcast,330,2013-03-12 12:15:00
7:35 AM,15.8,12.2,86,30.01,4.0,NNW,11.5,-,N/A,,Overcast,330,2013-03-12 12:35:00
7:55 AM,17.6,12.2,79,30.02,2.5,NNW,12.7,-,N/A,,Overcast,330,2013-03-12 12:55:00
8:15 AM,17.6,14.0,86,30.02,3.0,NNW,12.7,-,N/A,,Overcast,330,2013-03-12 13:15:00
8:35 AM,17.6,14.0,86,30.03,2.0,NNW,15.0,-,N/A,,Overcast,330,2013-03-12 13:35:00
8:55 AM,17.6,14.0,86,30.04,1.8,NNW,15.0,-,N/A,,Overcast,330,2013-03-12 13:55:00
9:15 AM,19.4,14.0,80,30.06,1.8,NNW,15.0,-,N/A,,Overcast,330,2013-03-12 14:15:00
9:35 AM,19.4,14.0,80,30.06,3.0,NNW,15.0,-,N/A,,Overcast,330,2013-03-12 14:35:00
9:55 AM,19.4,15.8,86,30.07,2.0,NNW,16.1,21.9,N/A,,Overcast,330,2013-03-12 14:55:00
10:15 AM,19.4,15.8,86,30.08,2.5,NNW,15.0,-,N/A,,Overcast,330,2013-03-12 15:15:00
10:35 AM,19.4,14.0,80,30.09,7.0,NNW,18.4,21.9,N/A,,Mostly Cloudy,330,2013-03-12 15:35:00
10:55 AM,19.4,14.0,80,30.09,10.0,NW,18.4,-,N/A,,Mostly Cloudy,320,2013-03-12 15:55:00
11:15 AM,21.2,15.8,80,30.10,5.0,NW,17.3,-,N/A,,Mostly Cloudy,320,2013-03-12 16:15:00
11:35 AM,21.2,15.8,80,30.11,7.0,NW,18.4,24.2,N/A,,Mostly Cloudy,320,2013-03-12 16:35:00
11:55 AM,21.2,14.0,74,30.11,10.0,NNW,17.3,25.3,N/A,,Clear,330,2013-03-12 16:55:00
12:15 PM,21.2,15.8,80,30.11,10.0,NW,20.7,25.3,N/A,,Clear,320,2013-03-12 17:15:00
12:35 PM,23.0,15.8,74,30.13,10.0,NW,20.7,27.6,N/A,,Scattered Clouds,320,2013-03-12 17:35:00
12:55 PM,23.0,17.6,80,30.13,10.0,NNW,16.1,25.3,N/A,,Mostly Cloudy,330,2013-03-12 17:55:00
1:15 PM,23.0,17.6,80,30.13,10.0,NW,23.0,26.5,N/A,,Mostly Cloudy,320,2013-03-12 18:15:00
1:35 PM,23.0,17.6,80,30.14,10.0,NNW,20.7,26.5,N/A,,Mostly Cloudy,330,2013-03-12 18:35:00
1:55 PM,24.8,17.6,74,30.14,10.0,NW,23.0,27.6,N/A,,Overcast,320,2013-03-12 18:55:00
2:15 PM,23.0,17.6,80,30.14,10.0,NNW,20.7,28.8,N/A,,Mostly Cloudy,330,2013-03-12 19:15:00
2:35 PM,24.8,17.6,74,30.15,10.0,NNW,23.0,-,N/A,,Scattered Clouds,330,2013-03-12 19:35:00
2:55 PM,24.8,17.6,74,30.15,10.0,NNW,21.9,27.6,N/A,,Scattered Clouds,330,2013-03-12 19:55:00
3:15 PM,24.8,17.6,74,30.15,10.0,NNW,19.6,28.8,N/A,,Scattered Clouds,330,2013-03-12 20:15:00
3:35 PM,24.8,17.6,74,30.16,10.0,NNW,21.9,28.8,N/A,,Scattered Clouds,330,2013-03-12 20:35:00
3:55 PM,24.8,17.6,74,30.16,10.0,NNW,19.6,25.3,N/A,,Scattered Clouds,330,2013-03-12 20:55:00
4:15 PM,24.8,17.6,74,30.17,10.0,NNW,18.4,26.5,N/A,,Scattered Clouds,340,2013-03-12 21:15:00
4:35 PM,24.8,17.6,74,30.17,10.0,NNW,19.6,-,N/A,,Clear,340,2013-03-12 21:35:00
4:55 PM,23.0,17.6,80,30.18,10.0,NNW,20.7,26.5,N/A,,Clear,330,2013-03-12 21:55:00
5:15 PM,24.8,17.6,74,30.18,10.0,NNW,18.4,25.3,N/A,,Clear,330,2013-03-12 22:15:00
5:35 PM,23.0,17.6,80,30.19,10.0,NNW,20.7,25.3,N/A,,Scattered Clouds,330,2013-03-12 22:35:00
5:55 PM,23.0,17.6,80,30.20,10.0,NNW,19.6,26.5,N/A,,Scattered Clouds,330,2013-03-12 22:55:00
6:15 PM,23.0,17.6,80,30.21,10.0,NNW,19.6,25.3,N/A,,Mostly Cloudy,330,2013-03-12 23:15:00
6:55 PM,21.2,17.6,86,30.23,10.0,NW,17.3,23.0,N/A,,Overcast,320,2013-03-12 23:55:00
7:15 PM,21.2,17.6,86,30.24,10.0,NW,18.4,21.9,N/A,,Overcast,320,2013-03-13 00:15:00
7:35 PM,21.2,17.6,86,30.25,10.0,NNW,17.3,24.2,N/A,,Overcast,330,2013-03-13 00:35:00
7:55 PM,21.2,15.8,80,30.26,10.0,NNW,16.1,24.2,N/A,,Overcast,330,2013-03-13 00:55:00
8:15 PM,21.2,15.8,80,30.26,10.0,NW,13.8,20.7,N/A,,Overcast,320,2013-03-13 01:15:00
8:55 PM,21.2,15.8,80,30.28,10.0,NNW,11.5,-,N/A,,Overcast,330,2013-03-13 01:55:00
9:15 PM,21.2,15.8,80,30.28,10.0,NNW,13.8,19.6,N/A,,Overcast,330,2013-03-13 02:15:00
9:35 PM,21.2,14.0,74,30.28,10.0,NNW,12.7,-,N/A,,Overcast,340,2013-03-13 02:35:00
9:55 PM,19.4,14.0,80,30.28,10.0,NNW,13.8,19.6,N/A,,Overcast,330,2013-03-13 02:55:00
10:15 PM,19.4,14.0,80,30.29,10.0,NNW,13.8,-,N/A,,Overcast,330,2013-03-13 03:15:00
10:35 PM,17.6,12.2,79,30.30,10.0,NNW,10.4,-,N/A,,Overcast,340,2013-03-13 03:35:00
10:55 PM,17.6,12.2,79,30.30,10.0,NNW,12.7,-,N/A,,Overcast,340,2013-03-13 03:55:00
11:15 PM,15.8,10.4,79,30.31,10.0,NNW,10.4,-,N/A,,Overcast,330,2013-03-13 04:15:00
11:35 PM,14.0,10.4,86,30.31,10.0,NNW,9.2,-,N/A,,Scattered Clouds,330,2013-03-13 04:35:00
11:55 PM,14.0,8.6,79,30.31,10.0,NNW,8.1,-,N/A,,Clear,330,2013-03-13 04:55:00